Regional Weather Roundup
Issued by NWS

Home | Current Version | Previous Version | Text Only | Print | Product List | Glossary On
Versions: 1 2 3 4 5 6 7 8 9 10 11 12 13 14 15 16 17 18 19 20 21 22 23 24 25 26 27
000
ASUS45 KREV 310410
RWRNV
NEVADA REGIONAL WEATHER ROUNDUP
NATIONAL WEATHER SERVICE RENO NV
900 PM PDT FRI JUL 30 2021

NOTE: "FAIR" INDICATES FEW OR NO CLOUDS BELOW 12,000 FEET WITH NO
SIGNIFICANT WEATHER AND/OR OBSTRUCTIONS TO VISIBILITY.

NVZ001-003-004-310500-
WESTERN NEVADA

CITY           SKY/WX    TMP DP  RH WIND       PRES   REMARKS
RENO           MOCLDY    76  51  41 S23       30.14R
CARSON CITY    FAIR      70  54  56 CALM      30.22R
MINDEN         MOCLDY    64  59  82 E6        30.22R
SLIDE MTN        N/A     55  48  76 NW6         N/A
PYRAMID LAKE     N/A     88 N/A N/A SE6         N/A
FALLON         CLOUDY    76  56  49 SW20G30   30.14R
LOVELOCK       MOCLDY    74  60  61 SW16      30.11R
HAWTHORNE      CLOUDY    72  57  60 E14       30.21R
$$

NVZ002-CAZ072-073-310500-
NORTHERN AND CENTRAL SIERRA

CITY           SKY/WX    TMP DP  RH WIND       PRES   REMARKS
S. LAKE TAHOE  MOCLDY    64  54  69 CALM      30.29R
TRUCKEE        CLOUDY    70  50  49 SE7       30.26R
SQUAW VLY 8000   N/A      1 -31  20 SW7         N/A
SUSANVILLE     FAIR      84  43  23 N3        30.10R
BLUE CANYON    CLOUDY    75  45  34 CALM      30.23R
BRIDGEPORT       N/A     61  50  67 NW5         N/A
$$

NVZ030-031-036-310500-
NORTHERN NEVADA

CITY           SKY/WX    TMP DP  RH WIND       PRES   REMARKS
ELKO           CLOUDY    68  63  84 SE5       30.23R
WINNEMUCCA     CLOUDY    86  51  29 NE17G25   30.07R
BATTLE MOUNTAI CLOUDY    70  61  73 E14       30.17R
WENDOVER       MOCLDY    77  60  55 SW12      30.15R
$$

NVZ035-037-310500-
CENTRAL NEVADA

CITY           SKY/WX    TMP DP  RH WIND       PRES   REMARKS
ELY            CLOUDY    65  56  72 S14       30.31R
EUREKA           N/A     64  59  83 CALM      30.27R
$$

NVZ013-014-310500-
SOUTH CENTRAL NEVADA

CITY           SKY/WX    TMP DP  RH WIND       PRES   REMARKS
TONOPAH        CLOUDY    71  53  52 NE8G18    30.27R
$$

NVZ017-020-022-310500-
SOUTHERN NEVADA

CITY           SKY/WX    TMP DP  RH WIND       PRES   REMARKS
LAS VEGAS      MOCLDY    86  60  41 S9        30.00R
N. LAS VEGAS   MOCLDY    89  60  37 CALM      29.99R
NELLIS AFB     MOCLDY    88  60  38 SW7       29.98R
HENDERSON      MOCLDY    83  62  49 S12       30.05R
MERCURY        LGT RAIN  75  62  64 W12G21    30.11R
$$



USA.gov is the U.S. government's official web portal to all federal, state and local government web resources and services.